Terminal Aerodrome Forecast
Issued by NWS Columbia, SC

Home | Current Version | Previous Version | Text Only | Print | Product List | Glossary On
Versions: 1 2 3 4 5 6 7 8 9 10 11 12 13 14 15 16 17 18 19 20 21 22 23 24 25 26 27 28 29 30 31 32 33 34 35 36 37 38 39 40 41
000
FTUS42 KCAE 010234 AAA
TAFAGS
TAF AMD
KAGS 010234Z 0103/0124 VRB02KT P6SM SCT050 SCT250
     FM010700 VRB02KT 4SM BR FEW250
      TEMPO 0108/0112 2SM BR SCT012
     FM011400 34005KT P6SM FEW040 SCT250=

USA.gov is the U.S. government's official web portal to all federal, state and local government web resources and services.